Total_Precipitation_Accumulation
0.43 0.34 0.51 0.52 0.50 0.61 0.92 0.90 0.83 0.39 0.22 0.18 0.21 0.27 0.26 0.24 0.21 0.21 0.23 0.24 0.25 0.26 0.26 0.25 0.23 0.21 0.18 0.18 0.21 0.25 0.29 0.32 0.35 0.39 0.41 0.43 0.43 0.45 0.48 0.50 0.55 0.57 0.60 0.61
0.50 0.30 0.41 0.48 0.44 0.47 0.52 0.55 0.55 0.40 0.32 0.23 0.23 0.24 0.24 0.21 0.19 0.19 0.20 0.22 0.23 0.21 0.23 0.22 0.24 0.24 0.22 0.21 0.21 0.23 0.26 0.27 0.30 0.34 0.37 0.41 0.44 0.44 0.45 0.49 0.55 0.59 0.65 0.71
0.62 0.33 0.46 0.52 0.43 0.44 0.44 0.41 0.45 0.48 0.38 0.27 0.27 0.26 0.24 0.22 0.18 0.17 0.15 0.15 0.17 0.19 0.21 0.20 0.20 0.20 0.19 0.19 0.19 0.21 0.24 0.25 0.28 0.31 0.36 0.39 0.45 0.48 0.53 0.59 0.66 0.72 0.76 0.86
0.71 0.47 0.59 0.39 0.30 0.33 0.37 0.37 0.40 0.38 0.30 0.25 0.25 0.25 0.24 0.20 0.17 0.14 0.11 0.09 0.10 0.12 0.14 0.14 0.14 0.15 0.17 0.16 0.17 0.19 0.23 0.28 0.31 0.33 0.42 0.49 0.51 0.56 0.63 0.70 0.78 0.84 0.84 0.86
0.81 0.58 0.34 0.21 0.21 0.24 0.33 0.38 0.34 0.26 0.19 0.17 0.19 0.23 0.23 0.18 0.14 0.12 0.10 0.10 0.09 0.10 0.12 0.12 0.13 0.14 0.17 0.19 0.20 0.20 0.24 0.30 0.35 0.37 0.47 0.57 0.58 0.62 0.67 0.72 0.79 0.82 0.81 0.77
0.81 0.67 0.30 0.17 0.10 0.11 0.23 0.41 0.27 0.22 0.20 0.20 0.22 0.27 0.23 0.16 0.14 0.14 0.13 0.11 0.12 0.12 0.13 0.16 0.18 0.20 0.22 0.25 0.30 0.32 0.34 0.39 0.45 0.52 0.60 0.65 0.65 0.65 0.63 0.62 0.64 0.63 0.59 0.56
0.68 0.63 0.24 0.13 0.08 0.10 0.33 0.41 0.19 0.16 0.18 0.21 0.22 0.21 0.18 0.13 0.11 0.14 0.16 0.16 0.15 0.16 0.19 0.21 0.22 0.24 0.27 0.30 0.39 0.44 0.46 0.50 0.52 0.57 0.61 0.60 0.60 0.57 0.54 0.48 0.46 0.45 0.44 0.43
0.41 0.59 0.33 0.13 0.11 0.20 0.27 0.18 0.16 0.17 0.19 0.19 0.19 0.15 0.14 0.15 0.13 0.11 0.12 0.14 0.16 0.19 0.22 0.25 0.28 0.33 0.35 0.38 0.43 0.45 0.46 0.47 0.47 0.46 0.47 0.49 0.48 0.48 0.44 0.42 0.39 0.38 0.39 0.41
0.26 0.27 0.18 0.14 0.13 0.14 0.13 0.13 0.12 0.14 0.15 0.16 0.16 0.16 0.13 0.12 0.11 0.10 0.11 0.13 0.16 0.20 0.25 0.28 0.29 0.33 0.35 0.36 0.36 0.36 0.37 0.37 0.35 0.32 0.32 0.34 0.34 0.36 0.37 0.36 0.35 0.36 0.39 0.42
0.22 0.17 0.13 0.12 0.10 0.09 0.08 0.08 0.07 0.07 0.09 0.13 0.16 0.15 0.14 0.12 0.11 0.09 0.09 0.10 0.13 0.15 0.17 0.20 0.22 0.24 0.25 0.25 0.25 0.24 0.24 0.25 0.25 0.23 0.24 0.26 0.27 0.30 0.31 0.32 0.32 0.32 0.36 0.42
0.20 0.14 0.12 0.10 0.08 0.07 0.07 0.06 0.05 0.04 0.05 0.08 0.10 0.10 0.11 0.12 0.10 0.10 0.09 0.10 0.10 0.10 0.11 0.13 0.14 0.15 0.16 0.15 0.16 0.18 0.18 0.18 0.19 0.21 0.22 0.24 0.27 0.30 0.34 0.34 0.39 0.39 0.36 0.38
0.20 0.12 0.13 0.12 0.08 0.07 0.08 0.07 0.06 0.06 0.06 0.06 0.07 0.07 0.07 0.07 0.07 0.08 0.09 0.10 0.10 0.10 0.12 0.14 0.14 0.13 0.12 0.12 0.13 0.16 0.18 0.18 0.20 0.21 0.21 0.23 0.25 0.29 0.34 0.36 0.40 0.42 0.42 0.41
0.10 0.08 0.08 0.07 0.05 0.04 0.05 0.05 0.05 0.05 0.06 0.07 0.07 0.07 0.07 0.08 0.09 0.10 0.12 0.13 0.13 0.12 0.11 0.13 0.14 0.14 0.13 0.14 0.15 0.16 0.18 0.20 0.21 0.22 0.23 0.23 0.24 0.27 0.29 0.31 0.34 0.36 0.38 0.41
0.06 0.07 0.08 0.06 0.04 0.03 0.04 0.05 0.05 0.05 0.06 0.07 0.08 0.08 0.08 0.08 0.10 0.12 0.14 0.15 0.15 0.14 0.13 0.12 0.13 0.15 0.15 0.15 0.16 0.18 0.20 0.23 0.24 0.23 0.23 0.23 0.24 0.25 0.27 0.28 0.27 0.26 0.28 0.34
0.04 0.06 0.08 0.07 0.06 0.06 0.06 0.06 0.06 0.06 0.07 0.07 0.07 0.07 0.09 0.10 0.11 0.13 0.13 0.14 0.15 0.15 0.14 0.14 0.14 0.14 0.16 0.17 0.17 0.17 0.19 0.21 0.23 0.23 0.25 0.26 0.26 0.27 0.27 0.28 0.28 0.27 0.27 0.30
0.06 0.05 0.06 0.06 0.06 0.07 0.07 0.07 0.08 0.08 0.08 0.09 0.10 0.11 0.12 0.13 0.12 0.11 0.11 0.12 0.13 0.13 0.12 0.11 0.13 0.14 0.13 0.15 0.16 0.16 0.17 0.22 0.23 0.22 0.22 0.24 0.27 0.28 0.28 0.29 0.30 0.30 0.29 0.30
0.10 0.10 0.10 0.10 0.09 0.08 0.07 0.07 0.08 0.10 0.11 0.12 0.13 0.14 0.13 0.13 0.12 0.11 0.11 0.11 0.12 0.13 0.14 0.15 0.15 0.13 0.12 0.13 0.14 0.14 0.15 0.18 0.24 0.23 0.23 0.23 0.24 0.26 0.27 0.29 0.29 0.29 0.28 0.33
0.11 0.12 0.12 0.13 0.12 0.11 0.09 0.09 0.09 0.10 0.11 0.12 0.12 0.13 0.14 0.14 0.14 0.13 0.13 0.13 0.12 0.12 0.12 0.13 0.13 0.11 0.11 0.13 0.15 0.16 0.16 0.16 0.17 0.19 0.21 0.25 0.28 0.27 0.28 0.28 0.28 0.28 0.29 0.33
0.11 0.10 0.10 0.10 0.11 0.11 0.11 0.10 0.10 0.10 0.11 0.12 0.13 0.14 0.14 0.14 0.14 0.13 0.13 0.14 0.15 0.15 0.14 0.13 0.15 0.13 0.11 0.13 0.16 0.15 0.17 0.18 0.19 0.20 0.23 0.28 0.31 0.28 0.28 0.29 0.29 0.29 0.31 0.33
0.07 0.08 0.10 0.11 0.12 0.12 0.13 0.12 0.12 0.12 0.12 0.13 0.13 0.14 0.14 0.15 0.15 0.14 0.14 0.14 0.15 0.16 0.15 0.15 0.15 0.13 0.13 0.14 0.18 0.15 0.16 0.18 0.20 0.22 0.25 0.28 0.28 0.28 0.28 0.29 0.30 0.30 0.31 0.32
0.10 0.10 0.12 0.14 0.15 0.15 0.15 0.14 0.14 0.13 0.12 0.12 0.13 0.15 0.15 0.16 0.17 0.17 0.18 0.17 0.15 0.14 0.14 0.15 0.13 0.13 0.14 0.17 0.21 0.19 0.19 0.20 0.21 0.23 0.26 0.28 0.29 0.29 0.28 0.29 0.30 0.30 0.31 0.31
0.13 0.13 0.15 0.17 0.19 0.19 0.17 0.15 0.14 0.13 0.12 0.12 0.12 0.13 0.13 0.14 0.15 0.16 0.17 0.18 0.18 0.18 0.15 0.12 0.12 0.14 0.18 0.22 0.21 0.21 0.22 0.23 0.24 0.25 0.27 0.28 0.30 0.31 0.30 0.31 0.33 0.33 0.33 0.33
0.14 0.15 0.16 0.17 0.18 0.19 0.18 0.17 0.16 0.15 0.14 0.14 0.15 0.15 0.16 0.16 0.16 0.17 0.17 0.15 0.15 0.16 0.14 0.11 0.13 0.17 0.20 0.19 0.18 0.20 0.22 0.25 0.26 0.27 0.28 0.29 0.31 0.33 0.34 0.33 0.32 0.32 0.33 0.33
0.17 0.16 0.16 0.15 0.15 0.15 0.15 0.15 0.15 0.15 0.15 0.15 0.16 0.16 0.18 0.18 0.15 0.14 0.15 0.17 0.17 0.17 0.14 0.13 0.16 0.18 0.20 0.18 0.18 0.21 0.23 0.25 0.27 0.28 0.30 0.31 0.32 0.32 0.33 0.33 0.32 0.30 0.30 0.31
0.17 0.16 0.15 0.15 0.15 0.15 0.15 0.14 0.13 0.12 0.13 0.13 0.13 0.13 0.14 0.16 0.18 0.16 0.15 0.16 0.17 0.18 0.16 0.16 0.19 0.20 0.20 0.19 0.21 0.24 0.26 0.27 0.30 0.33 0.33 0.33 0.31 0.32 0.31 0.31 0.32 0.31 0.30 0.29
0.14 0.14 0.13 0.13 0.13 0.13 0.14 0.14 0.14 0.13 0.13 0.14 0.12 0.12 0.12 0.13 0.14 0.15 0.15 0.16 0.16 0.17 0.17 0.18 0.20 0.21 0.21 0.22 0.24 0.26 0.27 0.29 0.31 0.31 0.30 0.30 0.30 0.32 0.31 0.31 0.30 0.31 0.29 0.28
0.13 0.12 0.12 0.11 0.10 0.11 0.12 0.14 0.15 0.15 0.15 0.17 0.16 0.14 0.14 0.14 0.15 0.15 0.15 0.16 0.16 0.16 0.16 0.17 0.18 0.19 0.20 0.22 0.24 0.25 0.26 0.27 0.27 0.28 0.28 0.30 0.30 0.31 0.31 0.31 0.31 0.30 0.29 0.29